CST,Max TemperatureF,Mean TemperatureF,Min TemperatureF,Max Dew PointF,MeanDew PointF,Min DewpointF,Max Humidity, Mean Humidity, Min Humidity, Max Sea Level PressureIn, Mean Sea Level PressureIn, Min Sea Level PressureIn, Max VisibilityMiles, Mean VisibilityMiles, Min VisibilityMiles, Max Wind SpeedMPH, Mean Wind SpeedMPH, Max Gust SpeedMPH,PrecipitationIn, CloudCover, Events, WindDirDegrees
2012-12-1,81,71,60,59,55,48,90,63,35,29.99,29.94,29.88,10,10,10,30,16,41,0.00,0,,201
2012-12-2,79,71,63,61,58,54,93,69,45,30.09,29.97,29.91,10,10,10,25,15,30,0.00,0,,193
2012-12-3,80,69,57,61,55,35,90,63,36,30.01,29.90,29.82,10,10,10,26,15,37,0.00,1,,199
2012-12-4,67,54,41,39,34,26,71,48,24,30.29,30.20,30.04,10,10,10,21,9,25,0.00,0,,345
2012-12-5,70,52,33,32,25,19,76,46,15,30.30,30.15,29.96,10,10,10,18,5,23,0.00,0,,175
2012-12-6,78,64,50,38,32,28,44,33,22,29.95,29.82,29.72,10,10,10,24,12,35,0.00,0,,191
2012-12-7,66,55,43,40,36,31,76,58,40,29.90,29.84,29.79,10,10,10,9,4,16,0.00,0,,338
2012-12-8,72,54,36,52,44,35,92,67,41,29.93,29.83,29.75,10,10,9,16,5,20,0.00,2,,186
2012-12-9,60,47,33,53,36,8,86,58,30,30.13,29.91,29.74,10,10,9,31,14,38,0.00,3,,343
2012-12-10,41,32,22,25,17,8,85,60,35,30.23,30.17,30.10,10,10,9,30,10,37,0.00,2,,338
2012-12-11,52,37,21,17,15,12,74,49,24,30.20,30.12,30.06,10,10,10,15,7,18,0.00,0,,161
2012-12-12,61,44,26,21,17,12,55,37,19,30.24,30.16,30.08,10,10,10,21,11,24,0.00,0,,171
2012-12-13,67,53,38,48,33,19,67,48,29,30.19,30.11,30.05,10,10,10,23,13,30,0.00,3,,174
2012-12-14,65,60,55,57,49,30,93,63,32,30.09,29.90,29.72,10,10,8,30,18,39,T,7,Rain,180
2012-12-15,71,59,46,32,29,26,49,35,20,29.92,29.87,29.82,10,10,10,22,9,26,0.00,1,,230
2012-12-16,69,59,49,36,33,29,56,40,24,29.85,29.79,29.70,10,10,10,24,8,32,0.00,0,,240
2012-12-17,68,55,42,27,23,19,43,29,15,29.95,29.86,29.78,10,10,10,26,12,35,0.00,0,,266
2012-12-18,77,59,41,27,25,22,49,32,14,29.86,29.78,29.70,10,10,10,16,8,22,0.00,0,,198
2012-12-19,74,57,40,56,35,7,84,48,11,30.06,29.70,29.53,10,8,1,39,20,51,0.00,4,,233
2012-12-20,51,40,29,19,7,-3,48,30,11,30.46,30.35,30.09,10,10,10,30,14,39,0.00,0,,306
2012-12-21,60,44,27,9,5,0,46,28,9,30.46,30.35,30.23,10,10,10,17,9,22,0.00,0,,196
2012-12-22,62,50,37,44,25,4,66,41,15,30.23,30.12,29.99,10,10,10,28,13,37,0.00,0,,197
2012-12-23,66,55,43,44,32,24,77,49,20,29.97,29.91,29.83,10,10,10,20,9,25,0.00,0,,242
2012-12-24,58,43,28,25,23,21,75,52,28,30.03,29.89,29.69,10,10,10,28,4,35,0.00,0,,79
2012-12-25,46,34,22,27,21,15,81,61,40,30.26,29.98,29.62,10,8,1,30,19,38,0.01,6,Rain-Snow,348
2012-12-26,33,26,19,20,15,10,77,64,51,30.32,30.21,30.05,10,10,10,21,8,25,0.00,2,,4
2012-12-27,50,38,26,29,23,19,75,56,36,30.02,29.89,29.79,10,10,10,23,9,28,0.00,0,,160
2012-12-28,41,32,23,37,27,13,100,72,44,30.27,30.00,29.82,10,5,0,23,10,26,0.00,5,Fog,341
2012-12-29,49,33,17,19,15,11,73,50,26,30.46,30.39,30.27,10,10,10,10,3,14,0.00,0,,183
2012-12-30,49,39,28,29,20,13,63,44,25,30.37,30.24,30.09,10,10,10,25,13,32,T,3,,153
2012-12-31,64,52,39,49,40,30,93,62,30,30.07,29.99,29.92,10,9,6,26,10,40,0.03,5,Rain,209